Location: B?ezina
(49.8085°N, 13.6013°E)
Time: 07:03:02
(UTC+00:00)

Cosmos 2369 - Pass Details

Date: 19 May 2025
Orbit: 839 x 853 km, 71.0° (Epoch: 14 June)

Event Time Altitude Azimuth Distance (km) Brightness Sun altitude
Rises 21:30:44 0° 329° (NNW) 3,415 8.5 -17.3°
Reaches altitude 10° 21:33:12 10° 328° (NNW) 2,474 7.4 -17.5°
Maximum altitude 21:38:51 71° 245° (WSW) 893 3.8 -17.8°
Enters shadow 21:41:37 31° 169° (S) 1,442 4.3 -18.0°
